EWG571 EDDH-EDDS

Flight info

Callsign EWG571
Flight time 0h 57m
Altitude 35000
Route IDEKO7G IDEKO N850 NIE DCT BERXO DCT SILWE DCT OSBIT P605 TOSTU T726 LBU
Aircraft A321/M-SDE3FGHIRWY/LB1

Departure

Time 2026-05-06 19:26
Airport Hamburg Helmut Schmidt Airport (EDDH)

Arrival

Time 2026-05-06 20:24
Airport Stuttgart Airport (EDDS)
Time Latitude Longitude Altitude Speed Heading
2026-05-06 18:46 53.63112 10.00381 47 ft 0 kts 87°
2026-05-06 19:14 53.63111 10.00360 47 ft 4 kts 86°
2026-05-06 19:14 53.63109 10.00315 44 ft 4 kts 84°
2026-05-06 19:14 53.63106 10.00270 47 ft 4 kts 85°
2026-05-06 19:14 53.63105 10.00225 48 ft 4 kts 97°
2026-05-06 19:15 53.63112 10.00190 47 ft 4 kts 159°
2026-05-06 19:15 53.63115 10.00187 45 ft 1 kts 176°
2026-05-06 19:19 53.63111 10.00187 47 ft 4 kts 175°
2026-05-06 19:19 53.63052 10.00166 48 ft 10 kts 211°
2026-05-06 19:20 53.62994 10.00103 48 ft 12 kts 212°
2026-05-06 19:20 53.62932 10.00024 48 ft 11 kts 230°
2026-05-06 19:20 53.62899 9.99922 48 ft 5 kts 243°
2026-05-06 19:20 53.62898 9.99920 48 ft 0 kts 243°
2026-05-06 19:24 53.62890 9.99893 45 ft 6 kts 243°
2026-05-06 19:24 53.62862 9.99798 45 ft 10 kts 244°
2026-05-06 19:25 53.62881 9.99733 45 ft 5 kts 334°
2026-05-06 19:25 53.62884 9.99731 45 ft 0 kts 335°
2026-05-06 19:25 53.62886 9.99729 45 ft 3 kts 335°
2026-05-06 19:25 53.63106 9.99542 45 ft 76 kts 333°
2026-05-06 19:26 53.63786 9.98954 49 ft 140 kts 333°
2026-05-06 19:26 53.64418 9.98422 210 ft 160 kts 334°
2026-05-06 19:26 53.65409 9.97545 964 ft 163 kts 336°
2026-05-06 19:26 53.66789 9.96358 1847 ft 175 kts 338°
2026-05-06 19:27 53.67897 9.95382 2485 ft 184 kts 337°
2026-05-06 19:27 53.69048 9.94356 3136 ft 190 kts 336°
2026-05-06 19:27 53.70209 9.93233 3813 ft 195 kts 328°
2026-05-06 19:27 53.71138 9.91404 4235 ft 223 kts 298°
2026-05-06 19:28 53.71402 9.89662 4504 ft 243 kts 273°
2026-05-06 19:28 53.71034 9.86691 4994 ft 270 kts 251°
2026-05-06 19:28 53.70378 9.83654 5830 ft 280 kts 250°
2026-05-06 19:28 53.69684 9.80541 6740 ft 286 kts 250°
2026-05-06 19:29 53.68975 9.77407 7741 ft 288 kts 250°
2026-05-06 19:29 53.68245 9.74232 8710 ft 292 kts 250°
2026-05-06 19:29 53.67504 9.71019 9528 ft 298 kts 250°
2026-05-06 19:29 53.66748 9.67780 9810 ft 296 kts 250°
2026-05-06 19:30 53.65967 9.64531 10095 ft 307 kts 246°
2026-05-06 19:30 53.64867 9.61287 10486 ft 330 kts 233°
2026-05-06 19:30 53.63164 9.58639 11175 ft 338 kts 211°
2026-05-06 19:30 53.60980 9.57118 11996 ft 343 kts 193°
2026-05-06 19:31 53.58610 9.56584 12855 ft 345 kts 186°
2026-05-06 19:31 53.56213 9.56164 13715 ft 348 kts 186°
2026-05-06 19:31 53.51359 9.55230 15193 ft 353 kts 187°
2026-05-06 19:32 53.48904 9.54734 15934 ft 356 kts 188°
2026-05-06 19:32 53.46468 9.54241 16676 ft 359 kts 188°
2026-05-06 19:32 53.43978 9.53741 17398 ft 362 kts 188°
2026-05-06 19:32 53.41436 9.53235 18098 ft 365 kts 188°
2026-05-06 19:33 53.38935 9.52743 18705 ft 368 kts 188°
2026-05-06 19:33 53.36376 9.52243 19302 ft 372 kts 188°
2026-05-06 19:33 53.33798 9.51740 19749 ft 374 kts 188°
2026-05-06 19:33 53.31211 9.51236 19869 ft 374 kts 188°
2026-05-06 19:34 53.28627 9.50735 19895 ft 374 kts 188°
2026-05-06 19:34 53.26041 9.50234 19905 ft 374 kts 188°
2026-05-06 19:34 53.23466 9.49728 20390 ft 378 kts 188°
2026-05-06 19:34 53.20814 9.49204 21009 ft 381 kts 188°
2026-05-06 19:35 53.18168 9.48682 21578 ft 384 kts 188°
2026-05-06 19:35 53.15503 9.48160 22125 ft 388 kts 188°
2026-05-06 19:35 53.12807 9.47640 22674 ft 391 kts 188°
2026-05-06 19:35 53.10088 9.47118 23215 ft 395 kts 188°
2026-05-06 19:36 53.07347 9.46591 23685 ft 398 kts 188°
2026-05-06 19:36 53.04585 9.46055 24131 ft 401 kts 188°
2026-05-06 19:36 53.01792 9.45513 24590 ft 404 kts 188°
2026-05-06 19:36 52.98993 9.44971 25038 ft 406 kts 188°
2026-05-06 19:37 52.96174 9.44402 25474 ft 408 kts 188°
2026-05-06 19:37 52.93351 9.43801 25907 ft 411 kts 188°
2026-05-06 19:37 52.90503 9.43180 26339 ft 413 kts 189°
2026-05-06 19:37 52.87651 9.42550 26750 ft 416 kts 189°
2026-05-06 19:38 52.84774 9.41917 27189 ft 418 kts 189°
2026-05-06 19:38 52.81888 9.41291 27611 ft 420 kts 189°
2026-05-06 19:38 52.79010 9.40678 28017 ft 422 kts 188°
2026-05-06 19:38 52.76086 9.40062 28414 ft 425 kts 188°
2026-05-06 19:39 52.73148 9.39445 28817 ft 427 kts 188°
2026-05-06 19:39 52.70146 9.38813 28524 ft 428 kts 188°
2026-05-06 19:39 52.67221 9.38197 29459 ft 431 kts 188°
2026-05-06 19:39 52.64229 9.37697 29822 ft 434 kts 182°
2026-05-06 19:40 52.61200 9.37905 30143 ft 438 kts 174°
2026-05-06 19:40 52.58193 9.38864 30473 ft 440 kts 168°
2026-05-06 19:40 52.55202 9.39998 30802 ft 442 kts 169°
2026-05-06 19:40 52.52196 9.41127 31105 ft 443 kts 169°
2026-05-06 19:41 52.49184 9.42255 31409 ft 445 kts 169°
2026-05-06 19:41 52.46162 9.43378 31789 ft 445 kts 169°
2026-05-06 19:41 52.43156 9.44494 32251 ft 443 kts 169°
2026-05-06 19:41 52.40157 9.45605 32688 ft 441 kts 169°
2026-05-06 19:42 52.37168 9.46711 33125 ft 439 kts 169°
2026-05-06 19:42 52.34198 9.47812 33593 ft 437 kts 170°
2026-05-06 19:42 52.31236 9.48911 34020 ft 435 kts 170°
2026-05-06 19:42 52.28290 9.50005 34371 ft 434 kts 170°
2026-05-06 19:43 52.25345 9.51098 34687 ft 434 kts 170°
2026-05-06 19:43 52.22396 9.52193 34834 ft 434 kts 170°
2026-05-06 19:43 52.16567 9.54346 34853 ft 427 kts 170°
2026-05-06 19:44 52.10778 9.56470 34850 ft 425 kts 170°
2026-05-06 19:44 52.05009 9.58572 34850 ft 424 kts 170°
2026-05-06 19:45 51.99282 9.60664 34849 ft 424 kts 170°
2026-05-06 19:45 51.93523 9.62777 34847 ft 424 kts 170°
2026-05-06 19:46 51.87767 9.64874 34835 ft 424 kts 170°
2026-05-06 19:46 51.82017 9.66951 34838 ft 423 kts 170°
2026-05-06 19:47 51.76273 9.69024 34835 ft 423 kts 170°
2026-05-06 19:47 51.70528 9.71094 34832 ft 423 kts 170°
2026-05-06 19:48 51.64783 9.73161 34811 ft 423 kts 170°
2026-05-06 19:48 51.59045 9.75231 34809 ft 422 kts 170°
2026-05-06 19:49 51.53309 9.77302 34818 ft 422 kts 170°
2026-05-06 19:49 51.47577 9.79348 34821 ft 422 kts 171°
2026-05-06 19:50 51.41847 9.81382 34822 ft 422 kts 171°
2026-05-06 19:50 51.36113 9.83413 34818 ft 421 kts 171°
2026-05-06 19:51 51.30400 9.85432 34821 ft 420 kts 171°
2026-05-06 19:51 51.24693 9.87446 34822 ft 419 kts 172°
2026-05-06 19:52 51.18941 9.87921 34827 ft 413 kts 186°
2026-05-06 19:52 51.13209 9.87412 34821 ft 412 kts 185°
2026-05-06 19:53 51.07489 9.86902 34829 ft 411 kts 185°
2026-05-06 19:53 51.01774 9.86407 34829 ft 410 kts 185°
2026-05-06 19:54 50.96075 9.85911 34818 ft 410 kts 185°
2026-05-06 19:54 50.90379 9.85406 34814 ft 410 kts 185°
2026-05-06 19:55 50.84693 9.84920 34824 ft 409 kts 185°
2026-05-06 19:55 50.79074 9.84439 34823 ft 408 kts 185°
2026-05-06 19:56 50.73403 9.83948 34817 ft 408 kts 185°
2026-05-06 19:56 50.70566 9.83706 34713 ft 408 kts 185°
2026-05-06 19:56 50.67734 9.83464 34477 ft 407 kts 185°
2026-05-06 19:57 50.64905 9.83221 34219 ft 406 kts 185°
2026-05-06 19:57 50.62100 9.82981 33987 ft 403 kts 185°
2026-05-06 19:57 50.59307 9.82744 33745 ft 400 kts 185°
2026-05-06 19:57 50.56528 9.82506 33460 ft 400 kts 185°
2026-05-06 19:58 50.53751 9.82268 33189 ft 400 kts 185°
2026-05-06 19:58 50.50967 9.82028 32914 ft 400 kts 185°
2026-05-06 19:58 50.48188 9.81788 32637 ft 399 kts 185°
2026-05-06 19:58 50.45419 9.81551 32345 ft 397 kts 185°
2026-05-06 19:59 50.42683 9.81316 31846 ft 391 kts 184°
2026-05-06 19:59 50.39980 9.81087 31324 ft 387 kts 184°
2026-05-06 19:59 50.37304 9.80863 30803 ft 383 kts 184°
2026-05-06 19:59 50.34656 9.80641 30263 ft 380 kts 183°
2026-05-06 20:00 50.32023 9.80415 29695 ft 378 kts 183°
2026-05-06 20:00 50.29409 9.80187 29139 ft 374 kts 183°
2026-05-06 20:00 50.26832 9.79964 28610 ft 369 kts 183°
2026-05-06 20:00 50.24285 9.79750 28103 ft 365 kts 183°
2026-05-06 20:01 50.21763 9.79541 27593 ft 361 kts 183°
2026-05-06 20:01 50.19268 9.79334 27105 ft 357 kts 183°
2026-05-06 20:01 50.16798 9.79127 26621 ft 353 kts 183°
2026-05-06 20:01 50.14358 9.78921 26162 ft 350 kts 183°
2026-05-06 20:02 50.11938 9.78715 25705 ft 347 kts 183°
2026-05-06 20:02 50.09539 9.78513 25271 ft 343 kts 183°
2026-05-06 20:02 50.07160 9.78330 24890 ft 347 kts 181°
2026-05-06 20:02 50.04674 9.78448 24439 ft 362 kts 178°
2026-05-06 20:03 50.02159 9.78616 23987 ft 363 kts 178°
2026-05-06 20:03 49.99633 9.78784 23564 ft 363 kts 178°
2026-05-06 20:03 49.97114 9.78948 23089 ft 361 kts 178°
2026-05-06 20:03 49.94648 9.79109 22668 ft 359 kts 178°
2026-05-06 20:04 49.92160 9.79273 22248 ft 357 kts 178°
2026-05-06 20:04 49.89679 9.79436 21831 ft 355 kts 178°
2026-05-06 20:04 49.87211 9.79591 21413 ft 354 kts 178°
2026-05-06 20:04 49.84758 9.79744 20998 ft 352 kts 178°
2026-05-06 20:05 49.82320 9.79896 20585 ft 350 kts 178°
2026-05-06 20:05 49.79890 9.80049 20177 ft 348 kts 178°
2026-05-06 20:05 49.77473 9.80201 19766 ft 347 kts 178°
2026-05-06 20:05 49.75069 9.80356 19353 ft 344 kts 178°
2026-05-06 20:06 49.72683 9.80510 18953 ft 342 kts 178°
2026-05-06 20:06 49.70311 9.80659 18553 ft 341 kts 179°
2026-05-06 20:06 49.67947 9.80784 18147 ft 338 kts 179°
2026-05-06 20:06 49.65600 9.80891 17669 ft 336 kts 179°
2026-05-06 20:07 49.63269 9.80989 17184 ft 334 kts 179°
2026-05-06 20:07 49.60954 9.81114 16735 ft 332 kts 176°
2026-05-06 20:07 49.58671 9.81657 16292 ft 331 kts 171°
2026-05-06 20:07 49.56406 9.82284 15843 ft 329 kts 171°
2026-05-06 20:08 49.54179 9.82719 15429 ft 326 kts 181°
2026-05-06 20:08 49.51911 9.82321 15045 ft 322 kts 188°
2026-05-06 20:08 49.49708 9.81817 14639 ft 320 kts 189°
2026-05-06 20:08 49.47513 9.81304 14235 ft 318 kts 189°
2026-05-06 20:09 49.45363 9.80789 13844 ft 316 kts 189°
2026-05-06 20:09 49.43194 9.80266 13429 ft 315 kts 189°
2026-05-06 20:09 49.41036 9.79749 12993 ft 313 kts 189°
2026-05-06 20:09 49.38889 9.79238 12556 ft 311 kts 189°
2026-05-06 20:10 49.37442 9.78895 12292 ft 311 kts 189°
2026-05-06 20:10 49.34616 9.78228 11812 ft 309 kts 190°
2026-05-06 20:10 49.32493 9.77729 11519 ft 308 kts 190°
2026-05-06 20:10 49.30384 9.77233 11267 ft 307 kts 190°
2026-05-06 20:11 49.28275 9.76737 11019 ft 306 kts 190°
2026-05-06 20:11 49.26856 9.76407 10894 ft 305 kts 190°
2026-05-06 20:11 49.24757 9.75917 10829 ft 305 kts 190°
2026-05-06 20:11 49.22657 9.75426 10839 ft 306 kts 190°
2026-05-06 20:12 49.20554 9.74935 10865 ft 305 kts 190°
2026-05-06 20:12 49.18449 9.74442 10866 ft 306 kts 190°
2026-05-06 20:12 49.16350 9.73951 10864 ft 306 kts 190°
2026-05-06 20:12 49.14251 9.73461 10865 ft 305 kts 190°
2026-05-06 20:13 49.12178 9.72980 10865 ft 306 kts 190°
2026-05-06 20:13 49.10070 9.72487 10863 ft 305 kts 190°
2026-05-06 20:13 49.07942 9.71988 10864 ft 305 kts 190°
2026-05-06 20:13 49.05872 9.71505 10865 ft 305 kts 190°
2026-05-06 20:14 49.03776 9.71017 10865 ft 305 kts 190°
2026-05-06 20:14 49.01676 9.70530 10699 ft 305 kts 190°
2026-05-06 20:14 48.99583 9.70044 10423 ft 304 kts 190°
2026-05-06 20:14 48.97498 9.69560 10107 ft 301 kts 190°
2026-05-06 20:15 48.95474 9.69092 9980 ft 289 kts 190°
2026-05-06 20:15 48.93520 9.68641 9772 ft 281 kts 190°
2026-05-06 20:15 48.91593 9.68192 9409 ft 278 kts 190°
2026-05-06 20:15 48.89686 9.67748 9013 ft 277 kts 191°
2026-05-06 20:16 48.87793 9.67311 8593 ft 272 kts 191°
2026-05-06 20:16 48.85932 9.66883 7929 ft 269 kts 191°
2026-05-06 20:16 48.84088 9.66461 7245 ft 268 kts 191°
2026-05-06 20:16 48.82249 9.66045 6568 ft 266 kts 191°
2026-05-06 20:17 48.80443 9.65545 6086 ft 261 kts 202°
2026-05-06 20:17 48.78914 9.64130 5950 ft 258 kts 221°
2026-05-06 20:17 48.77583 9.62383 5666 ft 243 kts 224°
2026-05-06 20:17 48.76436 9.60664 5537 ft 221 kts 236°
2026-05-06 20:18 48.75818 9.58664 5378 ft 202 kts 255°
2026-05-06 20:18 48.75446 9.56657 5248 ft 194 kts 255°
2026-05-06 20:18 48.75095 9.54763 5185 ft 180 kts 255°
2026-05-06 20:18 48.74760 9.52957 5034 ft 180 kts 255°
2026-05-06 20:19 48.74420 9.51133 4826 ft 179 kts 255°
2026-05-06 20:19 48.74082 9.49321 4590 ft 178 kts 255°
2026-05-06 20:19 48.73750 9.47531 4360 ft 175 kts 255°
2026-05-06 20:19 48.73414 9.45771 4148 ft 170 kts 254°
2026-05-06 20:20 48.73096 9.44118 3928 ft 159 kts 255°
2026-05-06 20:20 48.72808 9.42562 3705 ft 145 kts 255°
2026-05-06 20:20 48.72550 9.41183 3526 ft 132 kts 254°
2026-05-06 20:20 48.72303 9.39848 3362 ft 131 kts 255°
2026-05-06 20:21 48.72058 9.38512 3160 ft 132 kts 255°
2026-05-06 20:21 48.71812 9.37201 2981 ft 127 kts 255°
2026-05-06 20:21 48.71568 9.35910 2797 ft 127 kts 254°
2026-05-06 20:21 48.71327 9.34639 2663 ft 126 kts 253°
2026-05-06 20:22 48.71083 9.33339 2508 ft 130 kts 253°
2026-05-06 20:22 48.70838 9.32018 2337 ft 130 kts 253°
2026-05-06 20:22 48.70593 9.30709 2085 ft 130 kts 253°
2026-05-06 20:22 48.70343 9.29379 1872 ft 132 kts 252°
2026-05-06 20:23 48.70086 9.28030 1694 ft 134 kts 253°
2026-05-06 20:23 48.69823 9.26669 1519 ft 137 kts 253°
2026-05-06 20:23 48.69561 9.25266 1360 ft 139 kts 254°
2026-05-06 20:23 48.69302 9.23853 1209 ft 135 kts 254°
2026-05-06 20:24 48.69080 9.22686 1223 ft 91 kts 253°
2026-05-06 20:24 48.68956 9.22026 1245 ft 35 kts 255°
2026-05-06 20:24 48.68946 9.21734 1247 ft 27 kts 277°
2026-05-06 20:24 48.68981 9.21509 1259 ft 16 kts 284°
2026-05-06 20:25 48.69002 9.21366 1260 ft 13 kts 274°
2026-05-06 20:25 48.68980 9.21230 1263 ft 14 kts 253°
2026-05-06 20:25 48.68944 9.21040 1274 ft 21 kts 254°
2026-05-06 20:25 48.68903 9.20824 1274 ft 22 kts 254°
2026-05-06 20:26 48.68861 9.20604 1277 ft 22 kts 254°
2026-05-06 20:26 48.68820 9.20382 1282 ft 22 kts 254°
2026-05-06 20:26 48.68777 9.20161 1288 ft 22 kts 254°
2026-05-06 20:26 48.68761 9.20003 1292 ft 12 kts 293°
2026-05-06 20:27 48.68816 9.19917 1297 ft 11 kts 317°
2026-05-06 20:27 48.68874 9.19880 1301 ft 7 kts 342°
2026-05-06 20:27 48.68883 9.19779 1306 ft 14 kts 252°
2026-05-06 20:27 48.68854 9.19628 1309 ft 15 kts 254°
2026-05-06 20:28 48.68831 9.19503 1311 ft 5 kts 253°
2026-05-06 20:28 48.68837 9.19456 1313 ft 5 kts 320°
2026-05-06 20:28 48.68877 9.19437 1315 ft 4 kts 344°
2026-05-06 20:28 48.68893 9.19430 1315 ft 1 kts 344°
2026-05-06 20:29 48.68897 9.19428 1315 ft 0 kts 343°